Wetterdaten: Mittwoch, 13.06.2012
Datum Zeit Temperatur Luftfeuchte Regen Wind Richtung Richtung Taupunkt Windchill Windben
13.06.2012 00:00 7,9 C 95 % 0,0 l/m 2,1 km/h (1 Bft) W-SW 247 7,1 C 7,8 C 5,1 km/h (1 Bft)
13.06.2012 00:05 7,9 C 95 % 0,7 l/m 2,3 km/h (1 Bft) SO 135 7,1 C 7,8 C 2,9 km/h (1 Bft)
13.06.2012 00:10 7,9 C 95 % 0,0 l/m 3,1 km/h (1 Bft) NO 45 7,1 C 7,8 C 7,2 km/h (2 Bft)
13.06.2012 00:15 7,9 C 95 % 0,0 l/m 4,0 km/h (1 Bft) SO 135 7,1 C 7,6 C 6,4 km/h (2 Bft)
13.06.2012 00:20 7,9 C 95 % 0,0 l/m 4,3 km/h (1 Bft) O-NO 67 7,1 C 7,4 C 11,3 km/h (2 Bft)
13.06.2012 00:25 7,9 C 95 % 0,0 l/m 4,5 km/h (1 Bft) O-NO 67 7,1 C 7,4 C 3,5 km/h (1 Bft)
13.06.2012 00:30 7,9 C 95 % 0,0 l/m 5,0 km/h (1 Bft) S-SO 157 7,1 C 7,2 C 8,0 km/h (2 Bft)
13.06.2012 00:35 7,9 C 95 % 0,0 l/m 4,0 km/h (1 Bft) SO 135 7,1 C 7,6 C 4,7 km/h (1 Bft)
13.06.2012 00:40 7,9 C 95 % 0,0 l/m 3,4 km/h (1 Bft) O 90 7,1 C 7,8 C 2,4 km/h (1 Bft)
13.06.2012 00:45 7,9 C 95 % 0,0 l/m 3,4 km/h (1 Bft) SO 135 7,1 C 7,8 C 6,9 km/h (2 Bft)
13.06.2012 00:50 7,9 C 95 % 0,0 l/m 4,5 km/h (1 Bft) S-SO 157 7,1 C 7,4 C 3,7 km/h (1 Bft)
13.06.2012 00:55 7,9 C 95 % 0,0 l/m 5,6 km/h (1 Bft) SO 135 7,1 C 7,2 C 9,7 km/h (2 Bft)
13.06.2012 01:00 8,0 C 94 % 0,0 l/m 6,3 km/h (2 Bft) O-NO 67 7,1 C 6,9 C 12,1 km/h (2 Bft)
13.06.2012 01:05 8,0 C 94 % 0,0 l/m 6,3 km/h (2 Bft) O-SO 112 7,1 C 6,9 C 12,2 km/h (2 Bft)
13.06.2012 01:10 7,9 C 95 % 0,7 l/m 5,3 km/h (1 Bft) N-NO 22 7,1 C 7,2 C 6,3 km/h (2 Bft)
13.06.2012 01:15 7,9 C 95 % 0,0 l/m 4,8 km/h (1 Bft) O-SO 112 7,1 C 7,4 C 4,7 km/h (1 Bft)
13.06.2012 01:20 8,0 C 95 % 0,0 l/m 5,0 km/h (1 Bft) O-SO 112 7,2 C 7,3 C 3,2 km/h (1 Bft)
13.06.2012 01:25 7,9 C 95 % 0,0 l/m 5,3 km/h (1 Bft) SO 135 7,1 C 7,2 C 5,1 km/h (1 Bft)
13.06.2012 01:30 7,9 C 95 % 0,0 l/m 4,7 km/h (1 Bft) O-SO 112 7,1 C 7,4 C 4,8 km/h (1 Bft)
13.06.2012 01:35 7,9 C 95 % 0,0 l/m 3,7 km/h (1 Bft) O 90 7,1 C 7,8 C 3,7 km/h (1 Bft)
13.06.2012 01:40 7,9 C 95 % 0,0 l/m 3,4 km/h (1 Bft) O 90 7,1 C 7,8 C 15,0 km/h (3 Bft)
13.06.2012 01:45 7,9 C 95 % 0,0 l/m 4,0 km/h (1 Bft) O-SO 112 7,1 C 7,7 C 6,9 km/h (2 Bft)
13.06.2012 01:50 8,0 C 95 % 0,7 l/m 5,8 km/h (2 Bft) O-SO 112 7,2 C 7,1 C 6,1 km/h (2 Bft)
13.06.2012 01:55 7,9 C 95 % 0,0 l/m 6,0 km/h (2 Bft) O-SO 112 7,1 C 7,1 C 6,6 km/h (2 Bft)
13.06.2012 02:00 8,0 C 95 % 0,0 l/m 6,1 km/h (2 Bft) O-SO 112 7,2 C 7,0 C 18,3 km/h (3 Bft)
13.06.2012 02:05 8,0 C 95 % 0,0 l/m 6,6 km/h (2 Bft) O-NO 67 7,2 C 6,7 C 10,9 km/h (2 Bft)
13.06.2012 02:10 8,0 C 95 % 0,0 l/m 5,5 km/h (1 Bft) NO 45 7,2 C 7,2 C 6,9 km/h (2 Bft)
13.06.2012 02:15 8,0 C 95 % 0,0 l/m 5,3 km/h (1 Bft) SO 135 7,2 C 7,2 C 4,2 km/h (1 Bft)
13.06.2012 02:20 8,0 C 95 % 0,0 l/m 5,3 km/h (1 Bft) S-SO 157 7,2 C 7,2 C 7,4 km/h (2 Bft)
13.06.2012 02:25 7,9 C 95 % 0,7 l/m 4,7 km/h (1 Bft) O-SO 112 7,1 C 7,4 C 3,5 km/h (1 Bft)
13.06.2012 02:30 7,9 C 95 % 0,0 l/m 3,4 km/h (1 Bft) O 90 7,1 C 7,9 C 5,1 km/h (1 Bft)
13.06.2012 02:35 7,9 C 95 % 0,0 l/m 2,7 km/h (1 Bft) S-SW 202 7,1 C 7,9 C 2,7 km/h (1 Bft)
13.06.2012 02:40 7,9 C 95 % 0,0 l/m 2,4 km/h (1 Bft) O 90 7,1 C 7,8 C 2,3 km/h (1 Bft)
13.06.2012 02:45 7,9 C 95 % 0,0 l/m 2,6 km/h (1 Bft) O-SO 112 7,1 C 7,8 C 3,7 km/h (1 Bft)
13.06.2012 02:50 8,0 C 95 % 0,0 l/m 4,5 km/h (1 Bft) SO 135 7,2 C 7,4 C 8,9 km/h (2 Bft)
13.06.2012 02:55 7,9 C 95 % 0,0 l/m 4,0 km/h (1 Bft) S-SO 157 7,1 C 7,7 C 2,6 km/h (1 Bft)
13.06.2012 03:00 7,9 C 95 % 0,0 l/m 3,1 km/h (1 Bft) O-NO 67 7,1 C 7,8 C 3,4 km/h (1 Bft)
13.06.2012 03:05 7,9 C 95 % 0,0 l/m 3,4 km/h (1 Bft) NO 45 7,1 C 7,8 C 6,1 km/h (2 Bft)
13.06.2012 03:10 7,9 C 95 % 0,0 l/m 4,0 km/h (1 Bft) O 90 7,1 C 7,6 C 8,2 km/h (2 Bft)
13.06.2012 03:15 7,9 C 95 % 0,0 l/m 3,9 km/h (1 Bft) SO 135 7,1 C 7,7 C 6,3 km/h (2 Bft)
13.06.2012 03:20 7,9 C 95 % 0,0 l/m 3,9 km/h (1 Bft) O-SO 112 7,1 C 7,7 C 7,4 km/h (2 Bft)
13.06.2012 03:25 7,9 C 95 % 0,0 l/m 3,5 km/h (1 Bft) NO 45 7,1 C 7,7 C 2,9 km/h (1 Bft)
13.06.2012 03:30 7,8 C 95 % 0,0 l/m 3,1 km/h (1 Bft) O-SO 112 7,0 C 7,7 C 4,7 km/h (1 Bft)
13.06.2012 03:35 7,8 C 95 % 0,7 l/m 2,6 km/h (1 Bft) S 180 7,0 C 7,7 C 4,3 km/h (1 Bft)
13.06.2012 03:40 7,8 C 95 % 0,0 l/m 3,2 km/h (1 Bft) NO 45 7,0 C 7,7 C 3,5 km/h (1 Bft)
13.06.2012 03:45 7,8 C 95 % 0,0 l/m 4,0 km/h (1 Bft) SO 135 7,0 C 7,5 C 6,0 km/h (2 Bft)
13.06.2012 03:50 7,7 C 95 % 0,0 l/m 4,0 km/h (1 Bft) SO 135 7,0 C 7,4 C 3,5 km/h (1 Bft)
13.06.2012 03:55 7,7 C 95 % 0,0 l/m 3,7 km/h (1 Bft) O-SO 112 7,0 C 7,6 C 5,0 km/h (1 Bft)
13.06.2012 04:00 7,7 C 95 % 0,0 l/m 3,1 km/h (1 Bft) SO 135 7,0 C 7,6 C 3,5 km/h (1 Bft)
13.06.2012 04:05 7,7 C 95 % 0,0 l/m 3,5 km/h (1 Bft) NO 45 7,0 C 7,5 C 4,7 km/h (1 Bft)
13.06.2012 04:10 7,6 C 95 % 0,0 l/m 3,7 km/h (1 Bft) O 90 6,9 C 7,4 C 3,1 km/h (1 Bft)
13.06.2012 04:15 7,6 C 95 % 0,0 l/m 2,7 km/h (1 Bft) O-SO 112 6,9 C 7,5 C 3,7 km/h (1 Bft)
13.06.2012 04:20 7,6 C 95 % 0,7 l/m 1,4 km/h (1 Bft) N-NW 337 6,9 C 7,4 C 0,0 km/h (0 Bft)
13.06.2012 04:25 7,6 C 95 % 0,0 l/m 2,3 km/h (1 Bft) N-NW 337 6,9 C 7,4 C 3,4 km/h (1 Bft)
13.06.2012 04:30 7,6 C 95 % 0,0 l/m 2,7 km/h (1 Bft) SO 135 6,9 C 7,4 C 2,9 km/h (1 Bft)
13.06.2012 04:35 7,6 C 95 % 0,0 l/m 2,6 km/h (1 Bft) O 90 6,9 C 7,4 C 2,7 km/h (1 Bft)
13.06.2012 04:40 7,5 C 95 % 0,0 l/m 3,1 km/h (1 Bft) O-SO 112 6,8 C 7,4 C 7,4 km/h (2 Bft)
13.06.2012 04:45 7,5 C 95 % 0,0 l/m 3,1 km/h (1 Bft) O-SO 112 6,8 C 7,4 C 3,1 km/h (1 Bft)
13.06.2012 04:50 7,5 C 95 % 0,0 l/m 2,4 km/h (1 Bft) SO 135 6,8 C 7,4 C 5,5 km/h (1 Bft)
13.06.2012 04:55 7,5 C 95 % 0,0 l/m 2,4 km/h (1 Bft) O 90 6,8 C 7,3 C 1,8 km/h (1 Bft)
13.06.2012 05:00 7,4 C 95 % 0,0 l/m 3,1 km/h (1 Bft) O-SO 112 6,7 C 7,3 C 6,1 km/h (2 Bft)
13.06.2012 05:05 7,4 C 95 % 0,0 l/m 2,9 km/h (1 Bft) O-SO 112 6,7 C 7,3 C 2,4 km/h (1 Bft)
13.06.2012 05:10 7,4 C 95 % 0,0 l/m 3,2 km/h (1 Bft) SO 135 6,7 C 7,3 C 7,4 km/h (2 Bft)
13.06.2012 05:15 7,4 C 95 % 0,0 l/m 3,2 km/h (1 Bft) O 90 6,7 C 7,3 C 6,3 km/h (2 Bft)
13.06.2012 05:20 7,4 C 95 % 0,0 l/m 3,1 km/h (1 Bft) O-SO 112 6,7 C 7,3 C 3,7 km/h (1 Bft)
13.06.2012 05:25 7,4 C 95 % 0,0 l/m 3,1 km/h (1 Bft) O-SO 112 6,7 C 7,3 C 3,5 km/h (1 Bft)
13.06.2012 05:30 7,4 C 95 % 0,0 l/m 3,1 km/h (1 Bft) SO 135 6,7 C 7,3 C 3,7 km/h (1 Bft)
13.06.2012 05:35 7,4 C 95 % 0,0 l/m 3,4 km/h (1 Bft) O-SO 112 6,7 C 7,3 C 5,8 km/h (2 Bft)
13.06.2012 05:40 7,4 C 95 % 0,7 l/m 3,1 km/h (1 Bft) SO 135 6,7 C 7,4 C 2,1 km/h (1 Bft)
13.06.2012 05:45 7,5 C 95 % 0,0 l/m 2,6 km/h (1 Bft) SO 135 6,8 C 7,4 C 2,7 km/h (1 Bft)
13.06.2012 05:50 7,5 C 95 % 0,0 l/m 2,1 km/h (1 Bft) O-SO 112 6,8 C 7,4 C 3,4 km/h (1 Bft)
13.06.2012 05:55 7,5 C 95 % 0,0 l/m 2,3 km/h (1 Bft) O-SO 112 6,8 C 7,4 C 2,3 km/h (1 Bft)
13.06.2012 06:00 7,5 C 95 % 0,0 l/m 2,6 km/h (1 Bft) O-SO 112 6,8 C 7,4 C 2,1 km/h (1 Bft)
13.06.2012 06:05 7,6 C 95 % 0,0 l/m 2,1 km/h (1 Bft) SO 135 6,9 C 7,4 C 5,5 km/h (1 Bft)
13.06.2012 06:10 7,6 C 95 % 0,0 l/m 1,6 km/h (1 Bft) O 90 6,9 C 7,4 C 2,9 km/h (1 Bft)
13.06.2012 06:15 7,6 C 95 % 0,0 l/m 2,1 km/h (1 Bft) O 90 6,9 C 7,4 C 2,9 km/h (1 Bft)
13.06.2012 06:20 7,7 C 95 % 0,0 l/m 2,9 km/h (1 Bft) O-SO 112 7,0 C 7,5 C 5,0 km/h (1 Bft)
13.06.2012 06:25 7,8 C 95 % 0,0 l/m 2,9 km/h (1 Bft) O-SO 112 7,0 C 7,5 C 4,0 km/h (1 Bft)
13.06.2012 06:30 7,8 C 95 % 0,0 l/m 2,9 km/h (1 Bft) SO 135 7,0 C 7,6 C 2,7 km/h (1 Bft)
13.06.2012 06:35 7,8 C 95 % 0,0 l/m 3,2 km/h (1 Bft) O-SO 112 7,0 C 7,7 C 3,1 km/h (1 Bft)
13.06.2012 06:40 7,9 C 95 % 0,0 l/m 2,7 km/h (1 Bft) SO 135 7,1 C 7,7 C 4,2 km/h (1 Bft)
13.06.2012 06:45 8,0 C 95 % 0,0 l/m 1,9 km/h (1 Bft) S-SO 157 7,2 C 7,7 C 2,9 km/h (1 Bft)
13.06.2012 06:50 8,1 C 95 % 0,0 l/m 1,8 km/h (1 Bft) SO 135 7,3 C 7,9 C 3,2 km/h (1 Bft)
13.06.2012 06:55 8,2 C 95 % 0,0 l/m 1,8 km/h (1 Bft) SO 135 7,4 C 8,0 C 2,4 km/h (1 Bft)
13.06.2012 07:00 8,4 C 95 % 0,0 l/m 1,9 km/h (1 Bft) W-SW 247 7,6 C 8,2 C 0,0 km/h (0 Bft)
13.06.2012 07:05 8,6 C 95 % 0,0 l/m 1,1 km/h (1 Bft) N-NO 22 7,8 C 8,3 C 1,9 km/h (1 Bft)
13.06.2012 07:10 8,9 C 95 % 0,0 l/m 0,3 km/h (0 Bft) N 360 8,1 C 8,6 C 0,0 km/h (0 Bft)
13.06.2012 07:15 8,9 C 95 % 0,0 l/m 1,0 km/h (0 Bft) O-SO 112 8,1 C 8,7 C 2,3 km/h (1 Bft)
13.06.2012 07:20 8,9 C 95 % 0,0 l/m 0,8 km/h (0 Bft) N-NW 337 8,1 C 8,9 C 0,0 km/h (0 Bft)
13.06.2012 07:25 9,0 C 95 % 0,0 l/m 0,6 km/h (0 Bft) N 360 8,2 C 8,9 C 0,0 km/h (0 Bft)
13.06.2012 07:30 9,0 C 95 % 0,0 l/m 0,6 km/h (0 Bft) O-SO 112 8,2 C 9,0 C 2,3 km/h (1 Bft)
13.06.2012 07:35 9,0 C 95 % 0,0 l/m 0,5 km/h (0 Bft) N-NO 22 8,2 C 9,0 C 0,0 km/h (0 Bft)
13.06.2012 07:40 8,9 C 95 % 0,0 l/m 0,2 km/h (0 Bft) NW 315 8,1 C 9,1 C 0,0 km/h (0 Bft)
13.06.2012 07:45 8,9 C 95 % 0,0 l/m 0,0 km/h (0 Bft) N 360 8,1 C 9,2 C 0,0 km/h (0 Bft)
13.06.2012 07:50 8,9 C 95 % 0,0 l/m 0,0 km/h (0 Bft) S-SO 157 8,1 C 9,3 C 0,0 km/h (0 Bft)
13.06.2012 07:55 9,3 C 94 % 0,0 l/m 0,2 km/h (0 Bft) N 360 8,4 C 9,5 C 0,0 km/h (0 Bft)
13.06.2012 08:00 9,6 C 94 % 0,0 l/m 0,2 km/h (0 Bft) NO 45 8,7 C 9,8 C 0,0 km/h (0 Bft)
13.06.2012 08:05 10,0 C 94 % 0,0 l/m 0,0 km/h (0 Bft) O-SO 112 9,1 C 10,2 C 0,0 km/h (0 Bft)
13.06.2012 08:10 10,9 C 94 % 0,0 l/m 0,0 km/h (0 Bft) O 90 10,0 C 11,0 C 0,0 km/h (0 Bft)
13.06.2012 08:15 11,7 C 94 % 0,0 l/m 0,0 km/h (0 Bft) W-SW 247 10,8 C 11,9 C 0,0 km/h (0 Bft)
13.06.2012 08:20 12,4 C 93 % 0,0 l/m 0,3 km/h (0 Bft) O 90 11,3 C 13,1 C 0,0 km/h (0 Bft)
13.06.2012 08:25 12,7 C 93 % 0,0 l/m 0,5 km/h (0 Bft) SO 135 11,6 C 13,8 C 0,0 km/h (0 Bft)
13.06.2012 08:30 13,5 C 90 % 0,0 l/m 1,0 km/h (0 Bft) O-SO 112 11,9 C 14,7 C 2,1 km/h (1 Bft)
13.06.2012 08:35 13,4 C 89 % 0,0 l/m 1,8 km/h (1 Bft) NO 45 11,6 C 15,1 C 2,9 km/h (1 Bft)
13.06.2012 08:40 12,6 C 87 % 0,0 l/m 2,7 km/h (1 Bft) O-SO 112 10,5 C 14,8 C 3,4 km/h (1 Bft)
13.06.2012 08:45 12,7 C 87 % 0,0 l/m 2,6 km/h (1 Bft) O-SO 112 10,6 C 14,6 C 3,1 km/h (1 Bft)
13.06.2012 08:50 12,3 C 87 % 0,0 l/m 3,2 km/h (1 Bft) O-SO 112 10,2 C 14,1 C 4,7 km/h (1 Bft)
13.06.2012 08:55 12,2 C 86 % 0,0 l/m 4,3 km/h (1 Bft) W 270 9,9 C 13,7 C 3,2 km/h (1 Bft)
13.06.2012 09:00 12,7 C 85 % 0,0 l/m 4,3 km/h (1 Bft) O-SO 112 10,2 C 13,8 C 6,1 km/h (2 Bft)
13.06.2012 09:05 12,8 C 84 % 0,0 l/m 3,9 km/h (1 Bft) SO 135 10,2 C 14,1 C 6,6 km/h (2 Bft)
13.06.2012 09:10 12,7 C 84 % 0,0 l/m 4,0 km/h (1 Bft) O-SO 112 10,1 C 14,1 C 2,6 km/h (1 Bft)
13.06.2012 09:15 12,9 C 85 % 0,0 l/m 3,9 km/h (1 Bft) S 180 10,4 C 14,3 C 3,7 km/h (1 Bft)
13.06.2012 09:20 12,6 C 85 % 0,0 l/m 3,1 km/h (1 Bft) S 180 10,1 C 14,3 C 4,8 km/h (1 Bft)
13.06.2012 09:25 12,9 C 85 % 0,0 l/m 3,2 km/h (1 Bft) O-SO 112 10,4 C 14,4 C 6,1 km/h (2 Bft)
13.06.2012 09:30 13,0 C 83 % 0,0 l/m 4,2 km/h (1 Bft) SO 135 10,2 C 14,6 C 5,0 km/h (1 Bft)
13.06.2012 09:35 13,0 C 81 % 0,0 l/m 5,1 km/h (1 Bft) O-SO 112 9,8 C 14,6 C 14,3 km/h (3 Bft)
13.06.2012 09:40 13,9 C 80 % 0,0 l/m 5,6 km/h (1 Bft) O 90 10,5 C 15,0 C 9,2 km/h (2 Bft)
13.06.2012 09:45 13,4 C 79 % 0,0 l/m 6,4 km/h (2 Bft) SO 135 9,8 C 15,1 C 7,6 km/h (2 Bft)
13.06.2012 09:50 13,3 C 79 % 0,0 l/m 6,9 km/h (2 Bft) O-SO 112 9,7 C 14,4 C 6,0 km/h (2 Bft)
13.06.2012 09:55 13,4 C 76 % 0,0 l/m 7,2 km/h (2 Bft) O-SO 112 9,3 C 14,6 C 13,5 km/h (3 Bft)
13.06.2012 10:00 13,2 C 78 % 0,0 l/m 7,1 km/h (2 Bft) S-SW 202 9,4 C 14,5 C 7,1 km/h (2 Bft)
13.06.2012 10:05 13,2 C 78 % 0,0 l/m 6,8 km/h (2 Bft) S 180 9,4 C 14,6 C 4,7 km/h (1 Bft)
13.06.2012 10:10 13,2 C 78 % 0,0 l/m 7,2 km/h (2 Bft) O-SO 112 9,4 C 14,2 C 11,9 km/h (2 Bft)
13.06.2012 10:15 13,6 C 79 % 0,0 l/m 6,8 km/h (2 Bft) S-SO 157 10,0 C 14,5 C 5,0 km/h (1 Bft)
13.06.2012 10:20 13,1 C 78 % 0,0 l/m 6,9 km/h (2 Bft) O-SO 112 9,4 C 14,6 C 6,6 km/h (2 Bft)
13.06.2012 10:25 13,0 C 78 % 0,0 l/m 6,8 km/h (2 Bft) S 180 9,3 C 14,5 C 13,2 km/h (3 Bft)
13.06.2012 10:30 12,7 C 78 % 0,0 l/m 7,4 km/h (2 Bft) SO 135 9,0 C 13,5 C 8,7 km/h (2 Bft)
13.06.2012 10:35 13,1 C 79 % 0,0 l/m 6,4 km/h (2 Bft) S 180 9,5 C 14,5 C 8,5 km/h (2 Bft)
13.06.2012 10:40 13,5 C 78 % 0,0 l/m 5,1 km/h (1 Bft) SO 135 9,7 C 15,2 C 9,8 km/h (2 Bft)
13.06.2012 10:45 13,6 C 78 % 0,0 l/m 5,8 km/h (2 Bft) SO 135 9,8 C 15,3 C 5,3 km/h (1 Bft)
13.06.2012 10:50 13,7 C 75 % 0,0 l/m 6,8 km/h (2 Bft) SO 135 9,3 C 15,2 C 10,3 km/h (2 Bft)
13.06.2012 10:55 13,8 C 73 % 0,0 l/m 7,9 km/h (2 Bft) S-SO 157 9,0 C 14,6 C 10,1 km/h (2 Bft)
13.06.2012 11:00 14,5 C 73 % 0,0 l/m 7,6 km/h (2 Bft) S-SO 157 9,7 C 15,0 C 8,7 km/h (2 Bft)
13.06.2012 11:05 14,4 C 74 % 0,0 l/m 6,4 km/h (2 Bft) SO 135 9,8 C 16,1 C 5,8 km/h (2 Bft)
13.06.2012 11:10 15,1 C 75 % 0,0 l/m 5,1 km/h (1 Bft) S 180 10,7 C 16,8 C 10,1 km/h (2 Bft)
13.06.2012 11:15 15,5 C 75 % 0,0 l/m 5,5 km/h (1 Bft) S 180 11,1 C 17,1 C 8,7 km/h (2 Bft)
13.06.2012 11:20 15,7 C 67 % 0,0 l/m 7,6 km/h (2 Bft) SO 135 9,6 C 17,1 C 14,2 km/h (3 Bft)
13.06.2012 11:25 15,9 C 69 % 0,0 l/m 8,5 km/h (2 Bft) S-SO 157 10,2 C 16,2 C 4,7 km/h (1 Bft)
13.06.2012 11:30 16,9 C 64 % 0,0 l/m 10,1 km/h (2 Bft) S-SO 157 10,0 C 16,7 C 12,6 km/h (3 Bft)
13.06.2012 11:35 15,6 C 70 % 0,0 l/m 7,7 km/h (2 Bft) S-SO 157 10,1 C 17,5 C 4,8 km/h (1 Bft)
13.06.2012 11:40 14,8 C 69 % 0,0 l/m 6,4 km/h (2 Bft) S 180 9,2 C 16,9 C 5,0 km/h (1 Bft)
13.06.2012 11:45 14,7 C 68 % 0,0 l/m 7,1 km/h (2 Bft) N-NW 337 8,9 C 16,0 C 9,8 km/h (2 Bft)
13.06.2012 11:50 15,0 C 66 % 0,0 l/m 6,6 km/h (2 Bft) NO 45 8,7 C 16,2 C 8,7 km/h (2 Bft)
13.06.2012 11:55 17,2 C 65 % 0,0 l/m 6,3 km/h (2 Bft) NO 45 10,6 C 17,2 C 3,1 km/h (1 Bft)
13.06.2012 12:00 17,8 C 58 % 0,0 l/m 7,4 km/h (2 Bft) S 180 9,4 C 18,6 C 10,6 km/h (2 Bft)
13.06.2012 12:05 15,5 C 63 % 0,7 l/m 7,9 km/h (2 Bft) S 180 8,5 C 17,7 C 7,9 km/h (2 Bft)
13.06.2012 12:10 17,1 C 61 % 0,0 l/m 8,4 km/h (2 Bft) SO 135 9,5 C 16,8 C 10,1 km/h (2 Bft)
13.06.2012 12:15 17,9 C 58 % 0,0 l/m 8,4 km/h (2 Bft) S 180 9,5 C 17,4 C 10,3 km/h (2 Bft)
13.06.2012 12:20 16,3 C 59 % 0,0 l/m 8,4 km/h (2 Bft) S 180 8,3 C 17,3 C 8,7 km/h (2 Bft)
13.06.2012 12:25 16,5 C 57 % 0,0 l/m 8,4 km/h (2 Bft) O-SO 112 8,0 C 16,5 C 9,3 km/h (2 Bft)
13.06.2012 12:30 16,7 C 59 % 0,0 l/m 8,2 km/h (2 Bft) S 180 8,6 C 16,6 C 13,4 km/h (3 Bft)
13.06.2012 12:35 16,6 C 59 % 0,0 l/m 8,5 km/h (2 Bft) SO 135 8,6 C 16,0 C 10,1 km/h (2 Bft)
13.06.2012 12:40 18,2 C 54 % 0,0 l/m 8,7 km/h (2 Bft) O 90 8,7 C 17,1 C 20,0 km/h (4 Bft)
13.06.2012 12:45 16,4 C 55 % 0,0 l/m 8,7 km/h (2 Bft) SO 135 7,3 C 16,7 C 13,5 km/h (3 Bft)
13.06.2012 12:50 17,4 C 54 % 0,0 l/m 7,9 km/h (2 Bft) SO 135 8,0 C 17,0 C 12,4 km/h (3 Bft)
13.06.2012 12:55 17,6 C 51 % 0,0 l/m 8,4 km/h (2 Bft) S-SO 157 7,3 C 17,2 C 13,8 km/h (3 Bft)
13.06.2012 13:00 18,1 C 53 % 0,0 l/m 9,0 km/h (2 Bft) O-SO 112 8,4 C 17,4 C 9,5 km/h (2 Bft)
13.06.2012 13:05 18,0 C 50 % 0,0 l/m 10,1 km/h (2 Bft) S-SO 157 7,4 C 16,8 C 17,4 km/h (3 Bft)
13.06.2012 13:10 18,5 C 54 % 0,0 l/m 10,0 km/h (2 Bft) S-SO 157 9,0 C 17,0 C 7,7 km/h (2 Bft)
13.06.2012 13:15 17,0 C 54 % 0,0 l/m 9,0 km/h (2 Bft) O 90 7,6 C 17,4 C 9,5 km/h (2 Bft)
13.06.2012 13:20 16,5 C 55 % 0,0 l/m 7,9 km/h (2 Bft) S 180 7,4 C 16,8 C 6,9 km/h (2 Bft)
13.06.2012 13:25 17,6 C 53 % 0,0 l/m 8,4 km/h (2 Bft) O-SO 112 7,9 C 16,2 C 8,9 km/h (2 Bft)
13.06.2012 13:30 18,2 C 50 % 0,0 l/m 7,9 km/h (2 Bft) S-SO 157 7,6 C 17,4 C 8,5 km/h (2 Bft)
13.06.2012 13:35 17,9 C 53 % 0,0 l/m 7,9 km/h (2 Bft) S-SO 157 8,2 C 17,2 C 16,3 km/h (3 Bft)
13.06.2012 13:40 18,9 C 50 % 0,0 l/m 8,9 km/h (2 Bft) SW 225 8,2 C 17,6 C 9,3 km/h (2 Bft)
13.06.2012 13:45 19,4 C 49 % 0,0 l/m 9,3 km/h (2 Bft) O-SO 112 8,4 C 18,2 C 20,4 km/h (4 Bft)
13.06.2012 13:50 20,1 C 49 % 0,0 l/m 9,2 km/h (2 Bft) O-SO 112 9,0 C 18,9 C 18,2 km/h (3 Bft)
13.06.2012 13:55 20,2 C 45 % 0,0 l/m 9,3 km/h (2 Bft) SO 135 7,9 C 19,3 C 17,1 km/h (3 Bft)
13.06.2012 14:00 19,7 C 46 % 0,0 l/m 8,5 km/h (2 Bft) O-SO 112 7,8 C 19,7 C 21,7 km/h (4 Bft)
13.06.2012 14:05 19,7 C 46 % 0,0 l/m 9,0 km/h (2 Bft) SO 135 7,8 C 19,4 C 7,1 km/h (2 Bft)
13.06.2012 14:10 19,2 C 47 % 0,0 l/m 8,9 km/h (2 Bft) W-SW 247 7,6 C 19,0 C 16,3 km/h (3 Bft)
13.06.2012 14:15 19,7 C 47 % 0,0 l/m 9,0 km/h (2 Bft) S 180 8,1 C 18,7 C 10,8 km/h (2 Bft)
13.06.2012 14:20 19,9 C 45 % 0,0 l/m 9,7 km/h (2 Bft) S-SO 157 7,6 C 18,6 C 15,6 km/h (3 Bft)
13.06.2012 14:25 20,1 C 46 % 0,0 l/m 8,2 km/h (2 Bft) S 180 8,1 C 19,3 C 11,3 km/h (2 Bft)
13.06.2012 14:30 19,4 C 46 % 0,0 l/m 7,9 km/h (2 Bft) S 180 7,5 C 19,6 C 7,1 km/h (2 Bft)
13.06.2012 14:35 19,1 C 46 % 0,0 l/m 8,4 km/h (2 Bft) S 180 7,2 C 19,2 C 9,7 km/h (2 Bft)
13.06.2012 14:40 19,4 C 47 % 0,0 l/m 8,7 km/h (2 Bft) S 180 7,8 C 18,3 C 22,2 km/h (4 Bft)
13.06.2012 14:45 20,5 C 46 % 0,0 l/m 8,0 km/h (2 Bft) O-SO 112 8,5 C 19,5 C 6,8 km/h (2 Bft)
13.06.2012 14:50 18,8 C 47 % 0,0 l/m 7,6 km/h (2 Bft) S-SO 157 7,2 C 19,8 C 7,7 km/h (2 Bft)
13.06.2012 14:55 18,8 C 48 % 0,0 l/m 7,9 km/h (2 Bft) S 180 7,6 C 18,6 C 9,5 km/h (2 Bft)
13.06.2012 15:00 19,8 C 43 % 0,0 l/m 8,5 km/h (2 Bft) S-SW 202 6,9 C 19,1 C 12,2 km/h (2 Bft)
13.06.2012 15:05 19,6 C 43 % 0,0 l/m 9,0 km/h (2 Bft) S 180 6,7 C 19,2 C 8,5 km/h (2 Bft)
13.06.2012 15:10 19,5 C 44 % 0,0 l/m 9,5 km/h (2 Bft) O-SO 112 6,9 C 19,1 C 17,2 km/h (3 Bft)
13.06.2012 15:15 19,5 C 43 % 0,0 l/m 10,0 km/h (2 Bft) SO 135 6,6 C 18,6 C 15,8 km/h (3 Bft)
13.06.2012 15:20 17,8 C 47 % 0,0 l/m 10,5 km/h (2 Bft) O-SO 112 6,3 C 17,7 C 8,5 km/h (2 Bft)
13.06.2012 15:25 19,2 C 47 % 0,0 l/m 9,7 km/h (2 Bft) O-SO 112 7,6 C 17,8 C 3,9 km/h (1 Bft)
13.06.2012 15:30 18,4 C 48 % 0,0 l/m 8,2 km/h (2 Bft) O-SO 112 7,2 C 18,5 C 8,7 km/h (2 Bft)
13.06.2012 15:35 19,2 C 49 % 0,0 l/m 7,6 km/h (2 Bft) O-SO 112 8,2 C 18,7 C 15,1 km/h (3 Bft)
13.06.2012 15:40 18,6 C 45 % 0,0 l/m 9,8 km/h (2 Bft) S-SO 157 6,4 C 18,4 C 12,4 km/h (3 Bft)
13.06.2012 15:45 18,4 C 45 % 0,0 l/m 10,6 km/h (2 Bft) S 180 6,3 C 17,9 C 9,0 km/h (2 Bft)
13.06.2012 15:50 17,5 C 48 % 0,0 l/m 8,0 km/h (2 Bft) SO 135 6,4 C 18,4 C 9,2 km/h (2 Bft)
13.06.2012 15:55 17,1 C 49 % 0,0 l/m 7,2 km/h (2 Bft) S-SO 157 6,3 C 18,2 C 7,6 km/h (2 Bft)
13.06.2012 16:00 18,1 C 46 % 0,0 l/m 8,2 km/h (2 Bft) SO 135 6,3 C 17,3 C 19,3 km/h (3 Bft)
13.06.2012 16:05 19,2 C 45 % 0,0 l/m 10,6 km/h (2 Bft) S 180 7,0 C 17,3 C 15,1 km/h (3 Bft)
13.06.2012 16:10 18,7 C 47 % 0,0 l/m 11,9 km/h (2 Bft) O-SO 112 7,2 C 17,8 C 25,6 km/h (4 Bft)
13.06.2012 16:15 18,4 C 48 % 0,0 l/m 9,8 km/h (2 Bft) O 90 7,2 C 18,0 C 14,6 km/h (3 Bft)
13.06.2012 16:20 18,8 C 46 % 0,0 l/m 10,9 km/h (2 Bft) SO 135 6,9 C 17,8 C 15,9 km/h (3 Bft)
13.06.2012 16:25 17,4 C 50 % 0,0 l/m 12,4 km/h (3 Bft) S 180 6,9 C 17,0 C 11,1 km/h (2 Bft)
13.06.2012 16:30 17,4 C 52 % 0,0 l/m 10,3 km/h (2 Bft) SO 135 7,4 C 17,0 C 13,0 km/h (3 Bft)
13.06.2012 16:35 17,7 C 52 % 0,0 l/m 9,5 km/h (2 Bft) O-SO 112 7,7 C 17,0 C 11,9 km/h (2 Bft)
13.06.2012 16:40 18,9 C 50 % 0,0 l/m 10,6 km/h (2 Bft) O-SO 112 8,2 C 17,4 C 12,4 km/h (3 Bft)
13.06.2012 16:45 18,7 C 47 % 0,0 l/m 13,8 km/h (3 Bft) O-SO 112 7,2 C 17,5 C 23,5 km/h (4 Bft)
13.06.2012 16:50 17,5 C 46 % 0,0 l/m 15,9 km/h (3 Bft) S-SO 157 5,8 C 15,9 C 39,1 km/h (6 Bft)
13.06.2012 16:55 16,8 C 49 % 0,0 l/m 15,1 km/h (3 Bft) SO 135 6,0 C 15,8 C 9,5 km/h (2 Bft)
13.06.2012 17:00 16,2 C 52 % 0,0 l/m 12,6 km/h (3 Bft) S 180 6,3 C 15,8 C 8,9 km/h (2 Bft)
13.06.2012 17:05 15,5 C 54 % 0,0 l/m 11,7 km/h (2 Bft) SO 135 6,2 C 15,4 C 16,3 km/h (3 Bft)
13.06.2012 17:10 15,3 C 56 % 0,0 l/m 8,7 km/h (2 Bft) SO 135 6,6 C 15,2 C 7,1 km/h (2 Bft)
13.06.2012 17:15 15,2 C 56 % 0,0 l/m 7,9 km/h (2 Bft) SO 135 6,5 C 15,2 C 9,8 km/h (2 Bft)
13.06.2012 17:20 14,7 C 57 % 0,0 l/m 7,7 km/h (2 Bft) O-NO 67 6,3 C 14,6 C 6,3 km/h (2 Bft)
13.06.2012 17:25 14,7 C 57 % 0,0 l/m 8,0 km/h (2 Bft) O-SO 112 6,3 C 14,2 C 11,6 km/h (2 Bft)
13.06.2012 17:30 14,8 C 57 % 0,0 l/m 8,0 km/h (2 Bft) NO 45 6,4 C 14,2 C 8,7 km/h (2 Bft)
13.06.2012 17:35 15,2 C 57 % 0,0 l/m 8,7 km/h (2 Bft) SO 135 6,7 C 14,2 C 5,1 km/h (1 Bft)
13.06.2012 17:40 16,1 C 53 % 0,0 l/m 8,0 km/h (2 Bft) O-SO 112 6,5 C 16,2 C 11,3 km/h (2 Bft)
13.06.2012 17:45 16,2 C 54 % 0,0 l/m 7,6 km/h (2 Bft) O-SO 112 6,9 C 17,2 C 5,0 km/h (1 Bft)
13.06.2012 17:50 15,4 C 55 % 0,0 l/m 7,7 km/h (2 Bft) O-SO 112 6,4 C 16,8 C 16,1 km/h (3 Bft)
13.06.2012 17:55 15,1 C 57 % 0,0 l/m 7,6 km/h (2 Bft) O-SO 112 6,6 C 16,0 C 8,4 km/h (2 Bft)
13.06.2012 18:00 15,0 C 57 % 0,0 l/m 8,2 km/h (2 Bft) SO 135 6,6 C 14,8 C 10,9 km/h (2 Bft)
13.06.2012 18:05 15,0 C 57 % 0,0 l/m 8,0 km/h (2 Bft) SO 135 6,6 C 14,8 C 13,7 km/h (3 Bft)
13.06.2012 18:10 15,3 C 57 % 0,0 l/m 6,9 km/h (2 Bft) S-SO 157 6,8 C 15,5 C 3,7 km/h (1 Bft)
13.06.2012 18:15 15,5 C 58 % 0,0 l/m 6,0 km/h (2 Bft) S-SO 157 7,3 C 16,1 C 8,7 km/h (2 Bft)
13.06.2012 18:20 16,2 C 54 % 0,0 l/m 8,4 km/h (2 Bft) O-SO 112 6,9 C 16,2 C 24,6 km/h (4 Bft)
13.06.2012 18:25 15,2 C 57 % 0,0 l/m 11,6 km/h (2 Bft) O-SO 112 6,7 C 14,3 C 18,2 km/h (3 Bft)
13.06.2012 18:30 14,1 C 58 % 0,0 l/m 12,7 km/h (3 Bft) SO 135 6,0 C 11,8 C 12,9 km/h (3 Bft)
13.06.2012 18:35 13,8 C 59 % 0,0 l/m 12,7 km/h (3 Bft) O-SO 112 5,9 C 10,8 C 20,1 km/h (4 Bft)
13.06.2012 18:40 13,1 C 60 % 0,0 l/m 12,4 km/h (3 Bft) O-SO 112 5,5 C 9,6 C 16,1 km/h (3 Bft)
13.06.2012 18:45 12,8 C 62 % 0,0 l/m 11,3 km/h (2 Bft) O-SO 112 5,7 C 9,6 C 8,0 km/h (2 Bft)
13.06.2012 18:50 12,6 C 65 % 0,0 l/m 10,0 km/h (2 Bft) O-SO 112 6,2 C 9,9 C 24,9 km/h (4 Bft)
13.06.2012 18:55 12,6 C 67 % 0,0 l/m 8,9 km/h (2 Bft) SO 135 6,6 C 10,5 C 8,5 km/h (2 Bft)
13.06.2012 19:00 13,1 C 66 % 0,0 l/m 8,7 km/h (2 Bft) O-SO 112 6,9 C 10,4 C 8,2 km/h (2 Bft)
13.06.2012 19:05 13,1 C 65 % 0,0 l/m 8,2 km/h (2 Bft) O-SO 112 6,7 C 12,3 C 13,4 km/h (3 Bft)
13.06.2012 19:10 12,9 C 66 % 0,0 l/m 8,9 km/h (2 Bft) O 90 6,7 C 11,7 C 9,8 km/h (2 Bft)
13.06.2012 19:15 13,5 C 66 % 0,0 l/m 7,7 km/h (2 Bft) O-SO 112 7,3 C 13,8 C 12,7 km/h (3 Bft)
13.06.2012 19:20 13,4 C 62 % 0,0 l/m 6,0 km/h (2 Bft) SO 135 6,3 C 15,8 C 5,5 km/h (1 Bft)
13.06.2012 19:25 13,0 C 63 % 0,0 l/m 6,0 km/h (2 Bft) SO 135 6,1 C 15,8 C 7,7 km/h (2 Bft)
13.06.2012 19:30 12,0 C 65 % 0,0 l/m 5,8 km/h (2 Bft) SO 135 5,6 C 14,3 C 6,8 km/h (2 Bft)
13.06.2012 19:35 12,0 C 66 % 0,0 l/m 6,1 km/h (2 Bft) SO 135 5,8 C 13,4 C 7,4 km/h (2 Bft)
13.06.2012 19:40 12,2 C 67 % 0,0 l/m 5,3 km/h (1 Bft) O-SO 112 6,3 C 13,2 C 10,1 km/h (2 Bft)
13.06.2012 19:45 12,8 C 67 % 0,0 l/m 5,6 km/h (1 Bft) O 90 6,8 C 13,7 C 9,2 km/h (2 Bft)
13.06.2012 19:50 12,9 C 67 % 0,0 l/m 5,1 km/h (1 Bft) SO 135 6,9 C 14,8 C 5,5 km/h (1 Bft)
13.06.2012 19:55 12,9 C 66 % 0,0 l/m 4,7 km/h (1 Bft) O-NO 67 6,7 C 14,8 C 7,1 km/h (2 Bft)
13.06.2012 20:00 13,0 C 64 % 0,0 l/m 5,5 km/h (1 Bft) SO 135 6,4 C 15,0 C 7,7 km/h (2 Bft)
13.06.2012 20:05 13,0 C 63 % 0,0 l/m 6,0 km/h (2 Bft) O-SO 112 6,1 C 15,1 C 8,5 km/h (2 Bft)
13.06.2012 20:10 12,6 C 63 % 0,0 l/m 7,4 km/h (2 Bft) SO 135 5,7 C 13,9 C 8,5 km/h (2 Bft)
13.06.2012 20:15 12,1 C 65 % 0,0 l/m 7,6 km/h (2 Bft) O-SO 112 5,7 C 12,8 C 8,2 km/h (2 Bft)
13.06.2012 20:20 12,0 C 66 % 0,0 l/m 6,1 km/h (2 Bft) O 90 5,8 C 13,0 C 8,7 km/h (2 Bft)
13.06.2012 20:25 12,0 C 65 % 0,0 l/m 6,8 km/h (2 Bft) SO 135 5,6 C 12,8 C 10,9 km/h (2 Bft)
13.06.2012 20:30 11,9 C 67 % 0,0 l/m 6,9 km/h (2 Bft) SO 135 6,0 C 12,1 C 7,7 km/h (2 Bft)
13.06.2012 20:35 12,1 C 66 % 0,0 l/m 6,4 km/h (2 Bft) S 180 5,9 C 12,8 C 7,6 km/h (2 Bft)
13.06.2012 20:40 11,8 C 67 % 0,0 l/m 6,4 km/h (2 Bft) S-SO 157 5,9 C 12,3 C 4,8 km/h (1 Bft)
13.06.2012 20:45 11,6 C 68 % 0,0 l/m 6,8 km/h (2 Bft) O-SO 112 5,9 C 11,6 C 10,6 km/h (2 Bft)
13.06.2012 20:50 11,5 C 69 % 0,0 l/m 5,6 km/h (1 Bft) SO 135 6,0 C 11,8 C 3,4 km/h (1 Bft)
13.06.2012 20:55 11,6 C 69 % 0,0 l/m 6,0 km/h (2 Bft) O-SO 112 6,1 C 11,5 C 5,1 km/h (1 Bft)
13.06.2012 21:00 11,4 C 69 % 0,0 l/m 4,2 km/h (1 Bft) NO 45 5,9 C 11,7 C 4,2 km/h (1 Bft)
13.06.2012 21:05 11,3 C 69 % 0,0 l/m 2,9 km/h (1 Bft) SO 135 5,8 C 11,6 C 5,3 km/h (1 Bft)
13.06.2012 21:10 11,2 C 71 % 0,0 l/m 4,0 km/h (1 Bft) O-SO 112 6,1 C 11,4 C 3,5 km/h (1 Bft)
13.06.2012 21:15 11,1 C 71 % 0,0 l/m 3,7 km/h (1 Bft) O-SO 112 6,0 C 11,4 C 3,1 km/h (1 Bft)
13.06.2012 21:20 11,1 C 71 % 0,0 l/m 2,3 km/h (1 Bft) O-NO 67 6,0 C 11,3 C 6,6 km/h (2 Bft)
13.06.2012 21:25 11,0 C 72 % 0,0 l/m 2,1 km/h (1 Bft) O-SO 112 6,2 C 11,2 C 3,9 km/h (1 Bft)
13.06.2012 21:30 10,9 C 72 % 0,0 l/m 1,6 km/h (1 Bft) O-SO 112 6,1 C 11,1 C 1,9 km/h (1 Bft)
13.06.2012 21:35 10,9 C 72 % 0,0 l/m 1,0 km/h (0 Bft) SO 135 6,1 C 11,0 C 0,0 km/h (0 Bft)
13.06.2012 21:40 10,8 C 72 % 0,0 l/m 0,5 km/h (0 Bft) O-NO 67 6,0 C 10,8 C 0,0 km/h (0 Bft)
13.06.2012 21:45 10,7 C 73 % 0,0 l/m 0,5 km/h (0 Bft) SO 135 6,1 C 10,8 C 0,0 km/h (0 Bft)
13.06.2012 21:50 10,7 C 73 % 0,0 l/m 0,8 km/h (0 Bft) SO 135 6,1 C 10,7 C 2,3 km/h (1 Bft)
13.06.2012 21:55 10,6 C 74 % 0,0 l/m 1,1 km/h (1 Bft) N 360 6,2 C 10,6 C 3,1 km/h (1 Bft)
13.06.2012 22:00 10,5 C 74 % 0,0 l/m 1,3 km/h (1 Bft) NO 45 6,1 C 10,6 C 0,0 km/h (0 Bft)
13.06.2012 22:05 10,5 C 75 % 0,0 l/m 1,3 km/h (1 Bft) NO 45 6,3 C 10,6 C 0,0 km/h (0 Bft)
13.06.2012 22:10 10,4 C 75 % 0,0 l/m 0,8 km/h (0 Bft) O 90 6,2 C 10,5 C 1,6 km/h (1 Bft)
13.06.2012 22:15 10,3 C 75 % 0,0 l/m 0,8 km/h (0 Bft) S-SO 157 6,1 C 10,4 C 2,1 km/h (1 Bft)
13.06.2012 22:20 10,0 C 76 % 0,0 l/m 2,4 km/h (1 Bft) O-NO 67 6,0 C 10,1 C 2,9 km/h (1 Bft)
13.06.2012 22:25 9,7 C 76 % 0,0 l/m 3,5 km/h (1 Bft) O-SO 112 5,7 C 10,0 C 8,2 km/h (2 Bft)
13.06.2012 22:30 9,9 C 77 % 0,0 l/m 4,0 km/h (1 Bft) O-SO 112 6,1 C 10,0 C 6,9 km/h (2 Bft)
13.06.2012 22:35 9,9 C 77 % 0,0 l/m 4,5 km/h (1 Bft) O-SO 112 6,1 C 10,0 C 7,7 km/h (2 Bft)
13.06.2012 22:40 10,1 C 77 % 0,0 l/m 5,0 km/h (1 Bft) O-SO 112 6,3 C 10,0 C 5,5 km/h (1 Bft)
13.06.2012 22:45 10,2 C 77 % 0,0 l/m 5,0 km/h (1 Bft) SO 135 6,4 C 10,2 C 4,5 km/h (1 Bft)
13.06.2012 22:50 10,2 C 76 % 0,0 l/m 3,2 km/h (1 Bft) O-SO 112 6,2 C 10,4 C 0,0 km/h (0 Bft)
13.06.2012 22:55 10,3 C 77 % 0,0 l/m 3,1 km/h (1 Bft) S-SO 157 6,4 C 10,4 C 9,7 km/h (2 Bft)
13.06.2012 23:00 10,3 C 77 % 0,0 l/m 3,7 km/h (1 Bft) S 180 6,4 C 10,4 C 5,0 km/h (1 Bft)
13.06.2012 23:05 10,3 C 77 % 0,0 l/m 4,5 km/h (1 Bft) O-SO 112 6,4 C 10,3 C 3,9 km/h (1 Bft)
13.06.2012 23:10 10,3 C 77 % 0,0 l/m 6,0 km/h (2 Bft) O-SO 112 6,4 C 9,9 C 8,4 km/h (2 Bft)
13.06.2012 23:15 10,0 C 79 % 0,0 l/m 6,9 km/h (2 Bft) O-SO 112 6,5 C 8,9 C 7,1 km/h (2 Bft)
13.06.2012 23:20 9,7 C 81 % 0,0 l/m 7,6 km/h (2 Bft) SO 135 6,6 C 7,7 C 9,3 km/h (2 Bft)
13.06.2012 23:25 9,5 C 82 % 0,0 l/m 6,8 km/h (2 Bft) SO 135 6,6 C 8,1 C 5,8 km/h (2 Bft)
13.06.2012 23:30 9,4 C 83 % 0,0 l/m 4,7 km/h (1 Bft) S-SW 202 6,7 C 8,8 C 2,7 km/h (1 Bft)
13.06.2012 23:35 9,2 C 85 % 0,0 l/m 3,5 km/h (1 Bft) SO 135 6,8 C 9,0 C 3,9 km/h (1 Bft)
13.06.2012 23:40 9,1 C 86 % 0,0 l/m 2,7 km/h (1 Bft) O-NO 67 6,9 C 8,8 C 3,1 km/h (1 Bft)
13.06.2012 23:45 9,0 C 87 % 0,0 l/m 2,4 km/h (1 Bft) O-SO 112 7,0 C 8,7 C 2,9 km/h (1 Bft)
13.06.2012 23:50 8,9 C 88 % 0,0 l/m 1,9 km/h (1 Bft) O 90 7,0 C 8,6 C 4,7 km/h (1 Bft)
13.06.2012 23:55 8,9 C 89 % 0,0 l/m 2,3 km/h (1 Bft) N 360 7,2 C 8,6 C 4,5 km/h (1 Bft)
_ Min-Zeit 05:40 15:15 - 08:15 - - 18:40 02:05 22:50
Minimum _ 7,4 C 43 % - 0,0 km/h (0 Bft) - - 5,5 C 6,7 C 0,0 km/h (0 Bft)
_ Max-Zeit 14:45 07:50 12:05 16:50 - - 08:30 14:50 16:50
Maximum _ 20,5 C 95 % 0,7 l/m 15,9 km/h
S-SO (3 Bft)
- - 11,9 C 19,8 C 39,1 km/h
S-SO (6 Bft)
Durchschnitt _ 12,3 C 75 % #5,5 l/m 5,5 km/h (1 Bft) O-SO - 7,5 C 12,3 C 7,4 km/h (2 Bft)